User: anonymous   Login
Location: Unspecified
(0.0000°N, 0.0000°E)
Time: 00:59:47
(UTC+00:00)
Language:

STARLINK-32201 - Orbit

View from above orbital plane
View from above orbital plane
View from above satellite
View from above satellite

Ground track
Ground track

The orbit is defined by the following mean orbital elements,

1 61512U          26145.37100368 +.00000000 +00000-0 +21173-4 0 00002
2 61512  53.1589 133.4179 0001207  76.1021 284.0114 15.30195700    04
Epoch (UTC): 25 May 2026 08:54:14
Eccentricity: 0.0001207
inclination: 53.1589°
perigee height: 474 km
apogee height: 476 km
right ascension of ascending node: 133.4179°
argument of perigee: 76.1021°
revolutions per day: 15.30195700
mean anomaly at epoch: 284.0114°

The dashed part of the orbit path shows where the satellite is in the earth's shadow,  

DLR